When you browse on this site, cookies collect data to enhance your experience and personalize the content and advertising you see.
Visit our Privacy Policy to learn more. By continuing to use the site, you agree to this use of cookies and data.
  • In France
  • List of Countries
  • For 7 days
  • Water Temperature
  • Satellite Maps
  • Weather Map
  • Weather Widgets
  • user-avatar
    Login

    Hourly Weather Lezhe

    Today, 19 January, Saturday

    Time Temperature Precipitation Wind Pressure Humidity
    00:00 +5°C° 0.2 mm 3 mps 737 mmHg 86%
    01:00 +5°C° 0 mm 3 mps 737 mmHg 87%
    02:00 +5°C° 0.4 mm 3 mps 737 mmHg 88%
    03:00 +5°C° 0.4 mm 3 mps 737 mmHg 88%
    04:00 +5°C° 0.4 mm 3 mps 737 mmHg 88%
    05:00 +6°C° 0.4 mm 2 mps 737 mmHg 87%
    06:00 +6°C° 0.4 mm 2 mps 737 mmHg 86%
    07:00 +6°C° 0.4 mm 2 mps 737 mmHg 86%
    08:00 +7°C° 0.2 mm 2 mps 737 mmHg 84%
    09:00 +7°C° 0.2 mm 2 mps 737 mmHg 83%
    10:00 +8°C° 0.2 mm 2 mps 737 mmHg 81%
    11:00 +9°C° 0 mm 2 mps 737 mmHg 80%
    12:00 +9°C° 0 mm 2 mps 737 mmHg 78%
    13:00 +10°C° 0 mm 2 mps 736 mmHg 77%
    14:00 +9°C° 0 mm 2 mps 736 mmHg 79%
    15:00 +9°C° 0 mm 2 mps 736 mmHg 81%
    16:00 +8°C° 0 mm 2 mps 736 mmHg 84%
    17:00 +8°C° 0.1 mm 2 mps 735 mmHg 84%
    18:00 +7°C° 0.1 mm 2 mps 735 mmHg 83%
    19:00 +6°C° 0.1 mm 2 mps 735 mmHg 83%
    20:00 +6°C° 0.1 mm 2 mps 735 mmHg 83%
    21:00 +6°C° 0.1 mm 2 mps 735 mmHg 82%
    22:00 +6°C° 0.1 mm 2 mps 735 mmHg 81%
    23:00 +6°C° 0.2 mm 2 mps 735 mmHg 81%

    Tomorrow, 20 January, Sunday

    Time Temperature Precipitation Wind Pressure Humidity
    00:00 +6°C° 0.2 mm 2 mps 735 mmHg 82%
    01:00 +6°C° 0.2 mm 2 mps 735 mmHg 82%
    02:00 +6°C° 0.3 mm 2 mps 735 mmHg 82%
    03:00 +5°C° 0.3 mm 2 mps 734 mmHg 82%
    04:00 +5°C° 0.3 mm 2 mps 734 mmHg 83%
    05:00 +5°C° 0.7 mm 2 mps 734 mmHg 83%
    06:00 +6°C° 0.7 mm 2 mps 734 mmHg 84%
    07:00 +6°C° 0.7 mm 2 mps 735 mmHg 85%
    08:00 +6°C° 0.1 mm 2 mps 735 mmHg 83%
    09:00 +7°C° 0.1 mm 2 mps 735 mmHg 81%
    10:00 +8°C° 0.1 mm 2 mps 735 mmHg 80%
    11:00 +9°C° 0.2 mm 3 mps 735 mmHg 79%
    12:00 +9°C° 0.2 mm 3 mps 735 mmHg 79%
    13:00 +10°C° 0.2 mm 3 mps 735 mmHg 79%
    14:00 +9°C° 0.2 mm 2 mps 735 mmHg 81%
    15:00 +9°C° 0.2 mm 2 mps 735 mmHg 83%
    16:00 +9°C° 0.2 mm 1 mps 735 mmHg 85%
    17:00 +9°C° 0 mm 1 mps 735 mmHg 87%
    18:00 +7°C° 0 mm 2 mps 735 mmHg 89%
    19:00 +6°C° 0 mm 2 mps 735 mmHg 91%
    20:00 +6°C° 0 mm 2 mps 736 mmHg 89%
    21:00 +5°C° 0 mm 2 mps 736 mmHg 87%
    22:00 +5°C° 0 mm 2 mps 736 mmHg 85%
    23:00 +5°C° 0 mm 2 mps 736 mmHg 84%

    Day after tomorrow, 21 January, Monday

    Time Temperature Precipitation Wind Pressure Humidity
    00:00 +5°C° 0 mm 2 mps 736 mmHg 82%
    01:00 +5°C° 0 mm 2 mps 736 mmHg 80%
    02:00 +5°C° 0 mm 2 mps 736 mmHg 79%
    03:00 +5°C° 0 mm 2 mps 736 mmHg 79%
    04:00 +5°C° 0 mm 2 mps 735 mmHg 78%
    05:00 +5°C° 0 mm 2 mps 735 mmHg 79%
    06:00 +5°C° 0 mm 2 mps 736 mmHg 79%
    07:00 +5°C° 0 mm 2 mps 736 mmHg 79%
    08:00 +6°C° 0 mm 2 mps 736 mmHg 76%
    09:00 +7°C° 0 mm 2 mps 736 mmHg 73%
    10:00 +9°C° 0 mm 2 mps 736 mmHg 70%
    11:00 +9°C° 0.1 mm 2 mps 736 mmHg 68%
    12:00 +10°C° 0.1 mm 2 mps 736 mmHg 66%
    13:00 +12°C° 0.1 mm 1 mps 736 mmHg 64%
    14:00 +11°C° 0.1 mm 1 mps 736 mmHg 68%
    15:00 +10°C° 0.1 mm 1 mps 735 mmHg 72%
    16:00 +9°C° 0.1 mm 2 mps 735 mmHg 76%
    17:00 +8°C° 0.2 mm 2 mps 735 mmHg 77%
    18:00 +8°C° 0.2 mm 2 mps 735 mmHg 79%
    19:00 +7°C° 0.2 mm 2 mps 736 mmHg 80%
    20:00 +7°C° 0.3 mm 2 mps 736 mmHg 81%
    21:00 +7°C° 0.3 mm 2 mps 736 mmHg 81%
    22:00 +7°C° 0.3 mm 2 mps 735 mmHg 81%
    23:00 +6°C° 0.2 mm 2 mps 735 mmHg 81%

    22 January, Tuesday

    Time Temperature Precipitation Wind Pressure Humidity
    00:00 +6°C° 0.2 mm 2 mps 735 mmHg 81%
    01:00 +6°C° 0.2 mm 2 mps 735 mmHg 81%
    02:00 +6°C° 0.3 mm 2 mps 734 mmHg 81%
    03:00 +6°C° 0.3 mm 2 mps 734 mmHg 82%
    04:00 +5°C° 0.3 mm 2 mps 734 mmHg 82%
    05:00 +5°C° 1 mm 2 mps 733 mmHg 83%
    06:00 +5°C° 1 mm 2 mps 733 mmHg 84%
    07:00 +5°C° 1 mm 2 mps 733 mmHg 85%
    08:00 +5°C° 1.1 mm 2 mps 733 mmHg 85%
    09:00 +6°C° 1.1 mm 2 mps 732 mmHg 85%
    10:00 +6°C° 1.1 mm 2 mps 732 mmHg 85%
    11:00 +6°C° 0.7 mm 2 mps 731 mmHg 83%
    12:00 +7°C° 0.7 mm 3 mps 731 mmHg 81%
    13:00 +7°C° 0.7 mm 3 mps 730 mmHg 79%
    14:00 +7°C° 0.5 mm 3 mps 729 mmHg 80%
    15:00 +7°C° 0.5 mm 3 mps 729 mmHg 81%
    16:00 +7°C° 0.5 mm 2 mps 728 mmHg 82%
    17:00 +6°C° 1.8 mm 2 mps 728 mmHg 84%
    18:00 +6°C° 1.8 mm 2 mps 727 mmHg 87%
    19:00 +5°C° 1.8 mm 2 mps 727 mmHg 89%
    20:00 +5°C° 3 mm 2 mps 727 mmHg 89%
    21:00 +5°C° 3 mm 2 mps 726 mmHg 89%
    22:00 +5°C° 3 mm 2 mps 726 mmHg 90%
    23:00 +6°C° 0.9 mm 1 mps 726 mmHg 89%

    23 January, Wednesday

    Time Temperature Precipitation Wind Pressure Humidity
    00:00 +6°C° 0.9 mm 1 mps 725 mmHg 88%
    01:00 +6°C° 0.9 mm 1 mps 725 mmHg 87%
    02:00 +6°C° 0.2 mm 1 mps 725 mmHg 87%
    03:00 +6°C° 0.2 mm 1 mps 724 mmHg 87%
    04:00 +6°C° 0.2 mm 1 mps 724 mmHg 87%
    05:00 +5°C° 0.1 mm 0 mps 724 mmHg 87%
    06:00 +5°C° 0.1 mm 0 mps 724 mmHg 87%
    07:00 +5°C° 0.1 mm 0 mps 724 mmHg 87%
    08:00 +6°C° 0 mm 0 mps 724 mmHg 84%
    09:00 +6°C° 0 mm 0 mps 725 mmHg 82%
    10:00 +7°C° 0 mm 0 mps 725 mmHg 79%
    11:00 +8°C° 0 mm 0 mps 724 mmHg 78%
    12:00 +8°C° 0 mm 0 mps 724 mmHg 76%
    13:00 +9°C° 0 mm 0 mps 724 mmHg 74%
    14:00 +8°C° 0 mm 0 mps 724 mmHg 76%
    15:00 +8°C° 0 mm 0 mps 724 mmHg 78%
    16:00 +8°C° 0 mm 0 mps 724 mmHg 79%
    17:00 +7°C° 0 mm 0 mps 724 mmHg 81%
    18:00 +7°C° 0 mm 1 mps 725 mmHg 83%
    19:00 +6°C° 0 mm 1 mps 725 mmHg 85%
    20:00 +6°C° 0.1 mm 1 mps 725 mmHg 85%
    21:00 +5°C° 0.1 mm 2 mps 725 mmHg 86%
    22:00 +5°C° 0.1 mm 2 mps 726 mmHg 86%
    23:00 +5°C° 0 mm 2 mps 725 mmHg 85%

    24 January, Thursday

    Time Temperature Precipitation Wind Pressure Humidity
    00:00 +4°C° 0 mm 2 mps 725 mmHg 84%
    01:00 +4°C° 0 mm 2 mps 725 mmHg 83%
    02:00 +3°C° 0 mm 3 mps 725 mmHg 83%
    03:00 +3°C° 0 mm 3 mps 724 mmHg 82%
    04:00 +2°C° 0 mm 3 mps 724 mmHg 81%
    05:00 +2°C° 0 mm 3 mps 724 mmHg 80%
    06:00 +2°C° 0 mm 3 mps 724 mmHg 79%
    07:00 +2°C° 0 mm 3 mps 724 mmHg 78%
    08:00 +4°C° 0 mm 4 mps 723 mmHg 76%
    09:00 +5°C° 0 mm 4 mps 723 mmHg 73%
    10:00 +6°C° 0 mm 4 mps 723 mmHg 71%
    11:00 +6°C° 0 mm 5 mps 722 mmHg 70%
    12:00 +7°C° 0 mm 5 mps 722 mmHg 69%
    13:00 +7°C° 0 mm 6 mps 721 mmHg 68%
    14:00 +7°C° 0.1 mm 5 mps 721 mmHg 70%
    15:00 +6°C° 0.1 mm 4 mps 721 mmHg 72%
    16:00 +7°C° 0.1 mm 3 mps 721 mmHg 74%
    17:00 +5°C° 0 mm 4 mps 721 mmHg 75%
    18:00 +4°C° 0 mm 4 mps 721 mmHg 75%
    19:00 +3°C° 0 mm 5 mps 721 mmHg 75%
    20:00 +4°C° 0 mm 4 mps 721 mmHg 76%
    21:00 +3°C° 0 mm 4 mps 722 mmHg 76%
    22:00 +3°C° 0 mm 3 mps 722 mmHg 77%
    23:00 +3°C° 0 mm 3 mps 722 mmHg 77%
    Show more